Location: Izdebno
(52.6670°N, 16.2170°E)
Time: 17:33:56
(UTC+01:00)

Transit 2A - Pass Details

Date: 02 February 2023
Orbit: 591 x 964 km, 66.7° (Epoch: 21 March)

Event Time Altitude Azimuth Distance (km) Brightness Sun altitude
Rises 17:58:28 0° 219° (SW) 3,022 10.0 -11.7°
Reaches altitude 10° 18:00:40 10° 220° (SW) 2,160 9.2 -12.0°
Maximum altitude 18:05:36 85° 310° (NW) 765 6.0 -12.8°
Enters shadow 18:11:05 11° 39° (NE) 2,386 8.1 -13.6°
Drops below altitude 10° 18:11:11 10° 39° (NE) 2,426 - -13.6°
Sets 18:13:46 0° 40° (NE) 3,423 - -14.0°
